INTELSAT 33E (IS-33E)

Last updated on Oct. 27, 2020, 5:52 a.m. UTC

1 41748U 16053B   20300.78579727  .00000039  00000-0  00000+0 0  9997
2 41748   0.0111  54.1267 0001941 153.1561 171.2346  1.00273103 15570
UTC
Height (km)
Latitude
Longitude
Inclination
Orbital Period
UTC large
Height (km)
Speed (km/s)
/
Latitude / Longitude
Inclination (degrees)
Orbital Period (minutes)
Azimuth
Elevation
Range (km)
Doppler Factor
iOS Compass Heading
iOS Angle

Next 30 passes for location: Hong Kong

Rise time Rise Azimuth (degrees) Set time Set Azimuth (degrees) Duration Max altitude (degrees)

No matching passes for this satellites